YAHSAT 1B

Last updated on Sat Apr 13 2024 01:02:38 GMT+0100 (British Summer Time)

1 38245U 12016A 24103.53029598 .00000118 00000+0 00000+0 0 9991 2 38245 0.0225 121.9220 0003350 265.9517 51.8376 1.00271098 37611
UTC large
Height (km)
Speed (km/s)
/
Latitude / Longitude
Inclination (degrees)
Orbital Period (minutes)
Azimuth
Elevation
Range (km)
Doppler Factor

Next 0 passes for location: London (51.5072 / 0.1276)

Sorry there are no passes over London.